Flag for U.S.A. Weather past 2 weeks in Montgomery, Alabama, U.S.A.

Now
49 °F

Light rain. Overcast.


Feels Like: 48 °F
Forecast: 44 / 61 °F
Wind: 3 mph from Northeast

Location: Maxwell Air Force Base / Montgomery

Current Time: Feb 1, 2015 at 11:51:58 AM

Latest Report: Feb 1, 2015 at 10:58 AM


Visibility: 10 mi

Pressure: 30.10 "Hg

Humidity: 89%

Dew point: 46 °F

Location of MontgomeryLocation

Historic Weather in Montgomery — Graph

°F

Montgomery temperature yesterday

Maximum temperature yesterday: 60 °F (at 2:58 PM)
Minimum temperature yesterday: 30 °F (at 4:58 AM)
Average temperature yesterday: 46 °F

Past Weeks' High & Low Weather Summary

 TemperatureHumidityPressure
High70 °F (Jan 19, 2:58 PM)100% (Jan 21, 1:58 AM)30.41 "Hg (Jan 21, 1:58 AM)
Low29 °F (Jan 19, 5:58 AM)19% (Jan 18, 2:58 PM)29.78 "Hg (Jan 25, 2:58 PM)
Average48 °F66%30.11 "Hg
* Reported Jan 17 9:58 AM — Feb 1 9:58 AM, Montgomery, Weather by CustomWeather, © 2014

Note: Actual official high and low records may vary slightly from our data, if they occured in-between our weather recording intervals... More about our weather records

Advertising

Montgomery weather history for previous 24 hours

 ConditionsComfort  
Time TempWeatherWind HumidityBarometerVisibility
9:58 AM
Feb 1
47 °FLight rain. Overcast.6 mph83%30.14 "Hg10 mi
8:58 AM46 °FOvercast.6 mph73%30.16 "Hg10 mi
7:58 AM44 °FOvercast.6 mph71%30.16 "Hg10 mi
6:58 AM41 °FPartly sunny.3 mph82%30.15 "Hg10 mi
5:58 AM42 °FClear.5 mph71%30.12 "Hg10 mi
4:58 AM41 °FClear.3 mph67%30.16 "Hg10 mi
3:58 AM42 °FPassing clouds.5 mph69%30.16 "Hg10 mi
2:58 AM45 °FClear.2 mph52%30.18 "Hg10 mi
1:58 AM48 °FPassing clouds.5 mph47%30.19 "Hg10 mi
12:58 AM47 °FPassing clouds.6 mph48%30.21 "Hg10 mi
11:58 PM
Jan 31
48 °FPassing clouds.7 mph46%30.22 "Hg10 mi
10:58 PM47 °FPassing clouds.7 mph46%30.23 "Hg10 mi
9:58 PM52 °FPassing clouds.8 mph38%30.25 "Hg10 mi
8:58 PM51 °FPassing clouds.7 mph39%30.26 "Hg10 mi
7:58 PM50 °FPassing clouds.1 mph52%30.26 "Hg10 mi
6:58 PM51 °FPassing clouds.3 mph48%30.26 "Hg10 mi
5:58 PM51 °FPassing clouds.2 mph49%30.26 "Hg10 mi
4:58 PM58 °FSunny.3 mph26%30.26 "Hg10 mi
3:58 PM59 °FSunny.2 mph24%30.27 "Hg10 mi
2:58 PM60 °FSunny.6 mph22%30.27 "Hg10 mi
1:58 PM58 °FSunny.2 mph24%30.29 "Hg10 mi
12:58 PM56 °FSunny.2 mph26%30.32 "Hg10 mi
11:58 AM53 °FSunny.5 mph29%30.36 "Hg10 mi
Weather by CustomWeather, © 2014

See weather overviewHow to use our weather pages